Wind_Speed
35 33 40 42 43 38 33 33 36 38 36 36 38 35 32 31 30 28 25 24 23 22 22 22 21 20 21 23 23 24 24 24
33 31 37 46 46 42 37 33 37 38 38 38 39 35 33 32 30 29 27 25 23 23 23 22 22 21 22 24 25 26 24 22
39 36 39 43 44 44 41 35 32 38 37 37 37 35 32 30 31 30 29 26 24 25 24 23 21 21 22 25 27 26 24 21
38 39 43 42 44 46 44 37 33 30 37 37 36 38 36 35 35 33 29 26 25 25 24 23 21 22 22 26 28 26 24 21
40 45 47 44 44 46 45 42 36 32 30 33 34 37 37 35 32 31 28 27 26 25 24 23 21 20 23 26 25 25 23 23
45 44 49 48 47 48 48 46 41 36 34 31 34 37 39 34 34 30 30 28 27 26 24 22 20 21 24 24 24 24 23 24
45 50 47 48 51 53 54 51 44 37 37 34 32 35 37 38 36 31 29 27 27 25 24 22 21 22 23 24 24 23 23 23
32 39 48 47 52 51 56 56 43 42 39 35 30 33 37 38 31 28 26 27 26 25 23 21 20 25 25 29 24 22 22 21
36 41 47 42 43 48 53 58 45 38 38 26 26 23 35 36 34 29 26 27 25 23 21 16 19 23 29 28 21 21 21 19
31 30 37 38 39 48 55 58 51 35 43 30 27 23 26 37 37 31 28 30 23 21 16 14 20 23 27 24 21 19 17 16
33 32 32 35 40 43 52 58 42 44 41 27 32 25 24 33 36 30 30 26 23 18 15 23 29 21 23 21 20 17 16 14
23 28 29 33 40 40 45 53 47 30 38 32 30 26 28 37 32 33 29 28 28 18 22 33 17 22 19 19 17 16 14 13
13 17 15 17 26 33 42 37 34 42 35 33 31 29 34 36 34 29 31 31 26 25 26 17 19 19 17 16 15 15 13 13
17 19 15 10 13 18 25 27 32 33 35 34 31 29 27 37 36 34 34 34 18 15 20 17 16 16 16 15 15 14 12 12
17 20 26 28 28 30 32 22 21 25 32 31 29 28 31 39 39 38 39 30 15 25 14 16 16 15 15 15 14 13 12 12
18 18 19 20 22 22 21 18 18 21 23 26 27 29 36 41 42 40 34 24 33 25 17 16 16 14 15 15 13 13 13 11
21 16 14 14 20 16 15 19 20 21 24 27 27 32 38 46 45 42 34 22 25 23 18 16 15 14 14 15 14 13 12 12
30 25 15 12 12 11 13 15 18 21 20 20 30 34 39 47 44 31 23 26 20 19 14 15 15 15 16 15 14 13 13 10
29 25 18 16 13 13 14 18 23 23 26 28 25 35 42 45 44 38 39 30 22 18 15 17 16 16 16 15 14 13 11 10
Wind_Direction
256 264 262 259 263 271 278 266 254 242 239 241 240 236 238 241 242 247 253 257 257 257 256 263 273 287 297 304 307 304 300 300
254 258 258 262 262 263 269 275 260 249 241 237 238 238 239 238 241 246 252 253 254 253 255 261 272 287 296 305 305 302 301 304
253 259 257 258 266 265 267 270 270 253 243 239 236 237 236 234 240 245 249 250 251 251 254 261 271 286 296 304 303 299 300 301
259 259 263 261 262 263 270 270 270 269 251 244 236 235 229 236 238 243 247 249 250 250 254 260 270 284 294 302 299 299 301 304
261 260 262 260 260 267 268 268 267 263 256 254 251 245 241 239 236 239 244 246 249 249 252 258 268 279 295 296 296 300 304 304
249 258 261 266 263 262 265 266 262 260 254 254 251 246 236 229 232 236 242 244 246 248 249 252 260 281 293 295 299 300 302 301
252 255 262 261 260 259 259 259 259 257 259 252 252 246 237 231 231 233 240 242 243 245 245 246 260 283 294 298 298 296 295 299
261 260 255 258 256 257 260 256 252 254 256 251 253 245 235 232 228 234 241 245 243 241 239 243 264 284 294 298 293 292 295 298
249 243 253 257 258 254 254 254 244 261 257 257 265 271 246 231 226 226 230 234 235 231 231 244 265 289 295 290 289 289 291 294
257 250 250 257 260 254 251 249 242 256 249 242 251 250 258 236 229 218 223 232 220 220 228 246 265 284 282 284 282 285 288 295
247 250 254 254 255 255 250 242 239 252 236 248 253 247 242 242 221 224 222 219 215 216 226 241 264 278 273 275 278 285 289 290
236 234 236 249 250 256 250 238 240 246 252 237 258 244 246 232 225 211 217 218 220 213 242 253 268 266 270 273 279 281 283 286
218 225 241 253 261 253 238 229 268 261 247 245 253 264 230 222 220 204 209 210 210 235 241 260 256 262 265 270 273 275 277 282
287 277 229 216 239 238 243 254 259 262 248 246 244 248 236 220 213 210 211 214 214 240 258 251 256 262 264 268 270 269 273 279
269 261 262 255 245 244 244 255 260 259 253 248 247 243 225 213 210 208 211 211 209 251 222 249 256 261 264 267 264 266 270 273
272 268 260 248 235 226 225 220 227 235 247 248 246 236 216 211 210 209 214 232 241 223 216 243 254 260 263 264 263 263 264 267
254 243 240 244 237 233 222 220 221 220 221 232 236 235 213 210 211 207 221 233 192 206 206 236 253 261 264 263 261 260 260 264
268 261 256 251 262 259 249 240 241 231 238 237 229 237 216 213 213 212 204 201 208 222 220 241 256 260 262 260 257 255 254 265
255 246 253 255 268 273 274 249 241 242 241 242 247 232 219 209 214 217 227 248 220 218 227 245 256 259 260 260 258 255 259 274
Height
3072 3074 3073 3075 3077 3080 3081 3080 3081 3083 3087 3091 3094 3096 3099 3101 3104 3106 3108 3109 3109 3109 3110 3111 3112 3112 3112 3112 3111 3109 3107 3104
3064 3066 3066 3065 3067 3072 3075 3075 3075 3076 3078 3081 3085 3089 3092 3095 3098 3100 3102 3103 3103 3104 3105 3106 3106 3106 3106 3106 3105 3103 3101 3098
3056 3056 3055 3056 3059 3063 3066 3069 3069 3070 3070 3073 3077 3082 3085 3088 3092 3094 3096 3097 3098 3098 3100 3100 3101 3101 3101 3100 3099 3097 3095 3093
3045 3046 3045 3048 3050 3053 3058 3061 3064 3064 3066 3066 3070 3074 3076 3079 3084 3087 3089 3091 3092 3093 3094 3095 3095 3095 3095 3094 3092 3090 3088 3085
3037 3035 3035 3038 3043 3046 3049 3052 3056 3058 3058 3061 3064 3067 3069 3073 3078 3081 3083 3084 3086 3087 3089 3089 3089 3089 3090 3088 3085 3083 3080 3079
3026 3025 3026 3029 3033 3037 3039 3043 3047 3050 3052 3055 3056 3059 3061 3066 3069 3073 3076 3078 3079 3081 3083 3083 3084 3084 3084 3082 3079 3077 3075 3074
3018 3017 3017 3018 3021 3024 3027 3031 3037 3043 3046 3047 3049 3051 3055 3057 3061 3066 3070 3072 3074 3075 3077 3078 3078 3079 3078 3076 3075 3072 3071 3069
3007 3007 3003 3007 3008 3013 3016 3020 3026 3032 3037 3040 3042 3045 3048 3051 3056 3060 3063 3066 3068 3070 3071 3072 3072 3074 3072 3071 3071 3068 3066 3064
2993 2992 2993 2996 2998 3003 3008 3010 3015 3022 3028 3034 3037 3039 3042 3045 3048 3052 3055 3059 3062 3064 3065 3066 3067 3067 3066 3066 3065 3063 3061 3059
2982 2985 2986 2989 2990 2993 2996 3000 3008 3015 3019 3025 3029 3031 3035 3037 3040 3045 3048 3053 3056 3058 3059 3060 3060 3060 3062 3060 3059 3058 3056 3054
2973 2976 2977 2980 2982 2984 2988 2995 3004 3006 3011 3016 3021 3022 3026 3030 3033 3036 3043 3047 3050 3052 3051 3051 3052 3056 3056 3055 3054 3052 3051 3050
2968 2968 2969 2972 2974 2978 2983 2990 2998 3001 3001 3006 3013 3014 3020 3023 3027 3031 3036 3041 3043 3044 3044 3046 3051 3051 3051 3050 3048 3047 3046 3046
2964 2965 2966 2968 2971 2976 2983 2986 2992 2996 2998 3002 3005 3008 3012 3018 3023 3027 3030 3033 3035 3037 3038 3043 3046 3046 3045 3044 3043 3042 3042 3041
2965 2967 2965 2965 2970 2975 2979 2981 2986 2992 2994 2997 2999 3001 3005 3011 3016 3020 3024 3026 3028 3028 3035 3039 3040 3040 3039 3038 3039 3038 3037 3036
2962 2962 2965 2966 2967 2968 2972 2975 2979 2986 2990 2992 2994 2996 2998 3004 3009 3012 3014 3018 3019 3025 3031 3034 3035 3034 3034 3033 3034 3033 3032 3031
2959 2960 2962 2963 2963 2962 2965 2968 2973 2980 2983 2985 2988 2989 2991 2997 3001 3004 3011 3012 3015 3021 3025 3028 3029 3029 3029 3028 3028 3028 3027 3026
2954 2955 2956 2959 2962 2957 2959 2966 2969 2970 2972 2975 2979 2981 2984 2988 2993 2999 3006 3008 3009 3014 3019 3022 3023 3023 3024 3024 3023 3022 3022 3021
2948 2950 2953 2954 2954 2952 2953 2959 2963 2965 2967 2968 2971 2974 2977 2982 2987 2994 2998 3002 3006 3011 3014 3016 3017 3018 3018 3018 3018 3017 3017 3016
2943 2946 2948 2949 2944 2945 2948 2953 2956 2959 2960 2961 2963 2967 2970 2977 2983 2990 2995 2996 3000 3005 3008 3011 3012 3013 3012 3012 3012 3012 3012 3011